| Temperature (°F) | Max | Average | Min |
|---|---|---|---|
| Max Temperature | 90 | 82.19 | 71 |
| Avg Temperature | 79.5 | 71.06 | 62.51 |
| Min Temperature | 72 | 60.81 | 48 |
| Precipitation (in) | Max | Average | Min | Sum |
|---|---|---|---|---|
| Precipitation | 0 | 0 | 0 | 0 |
| Dew Point (°F) | Max | Average | Min |
|---|---|---|---|
| Dew Point | 71.82 | 62.66 | 52.46 |
| Wind (mph) | Max | Average | Min |
|---|---|---|---|
| Wind | 14 | 9.74 | 6 |
| Gust Wind | 25 | 16.79 | 14 |
| Sea Level Pressure (in) | Max | Average | Min |
|---|---|---|---|
| Sea Level Pressure | 29.92 | 29.75 | 29.55 |
| Date | Temp High/Low | Dew Pt High/Low | Humidity | Wind | Max Wind | Wind Gust | Pressure | Precip. | Condition |
|---|---|---|---|---|---|---|---|---|---|
| 8/1/2026 | 87 °F / 61 °F | 69 °F / 61 °F | 73 % | 9 mph | - | 29.72 in | 0 in | ||
| 8/2/2026 | 86 °F / 71 °F | 72 °F / 65 °F | 75 % | 13 mph | - | 29.73 in | 0 in | ||
| 8/3/2026 | 79 °F / 65 °F | 74 °F / 61 °F | 93 % | 13 mph | - | 29.54 in | 0 in | ||
| 8/4/2026 | 85 °F / 57 °F | 66 °F / 57 °F | 73 % | 10 mph | - | 29.83 in | 0 in | ||
| 8/5/2026 | 86 °F / 57 °F | 67 °F / 56 °F | 74 % | 6 mph | - | 29.9 in | 0 in | ||
| 8/6/2026 | 90 °F / 67 °F | 77 °F / 65 °F | 80 % | 7 mph | - | 29.86 in | 0 in | ||
| 8/7/2026 | 90 °F / 69 °F | 74 °F / 67 °F | 84 % | 9 mph | - | 29.84 in | 0 in | ||
| 8/8/2026 | 88 °F / 69 °F | 73 °F / 67 °F | 76 % | 7 mph | - | 29.71 in | 0 in | ||
| 8/9/2026 | 88 °F / 65 °F | 72 °F / 63 °F | 74 % | 12 mph | - | 29.7 in | 0 in | ||
| 8/10/2026 | 84 °F / 61 °F | 68 °F / 61 °F | 74 % | 6 mph | - | 29.72 in | 0 in | ||
| 8/11/2026 | 84 °F / 62 °F | 67 °F / 56 °F | 71 % | 14 mph | - | 29.58 in | 0 in | ||
| 8/12/2026 | 84 °F / 58 °F | 67 °F / 56 °F | 72 % | 8 mph | - | 29.58 in | 0 in | ||
| 8/13/2026 | 82 °F / 62 °F | 66 °F / 59 °F | 72 % | 13 mph | - | 29.61 in | 0 in | ||
| 8/14/2026 | 80 °F / 55 °F | 60 °F / 54 °F | 73 % | 14 mph | - | 29.8 in | 0 in | ||
| 8/15/2026 | 79 °F / 52 °F | 57 °F / 51 °F | 68 % | 10 mph | - | 29.93 in | 0 in | ||
| 8/16/2026 | 81 °F / 48 °F | 62 °F / 48 °F | 71 % | 9 mph | - | 29.87 in | 0 in | ||
| 8/17/2026 | 75 °F / 65 °F | 68 °F / 62 °F | 89 % | 9 mph | - | 29.66 in | 0 in | ||
| 8/18/2026 | 84 °F / 66 °F | 69 °F / 64 °F | 85 % | 10 mph | - | 29.64 in | 0 in | ||
| 8/19/2026 | 84 °F / 59 °F | 66 °F / 59 °F | 85 % | 12 mph | - | 29.65 in | 0 in | ||
| 8/20/2026 | 84 °F / 57 °F | 68 °F / 57 °F | 79 % | 7 mph | - | 29.75 in | 0 in | ||
| 8/21/2026 | 80 °F / 63 °F | 63 °F / 56 °F | 71 % | 12 mph | - | 29.86 in | 0 in | ||
| 8/22/2026 | 71 °F / 64 °F | 64 °F / 57 °F | 82 % | 6 mph | - | 29.83 in | 0 in | ||
| 8/23/2026 | 74 °F / 64 °F | 68 °F / 63 °F | 93 % | 9 mph | - | 29.65 in | 0 in | ||
| 8/24/2026 | 80 °F / 63 °F | 68 °F / 55 °F | 88 % | 9 mph | - | 29.67 in | 0 in | ||
| 8/25/2026 | 79 °F / 53 °F | 61 °F / 52 °F | 84 % | 12 mph | - | 29.71 in | 0 in | ||
| 8/26/2026 | 81 °F / 55 °F | 64 °F / 55 °F | 79 % | 6 mph | - | 29.82 in | 0 in | ||
| 8/27/2026 | 83 °F / 57 °F | 67 °F / 56 °F | 78 % | 13 mph | - | 29.81 in | 0 in | ||
| 8/28/2026 | 84 °F / 64 °F | 70 °F / 59 °F | 81 % | 10 mph | - | 29.77 in | 0 in | ||
| 8/29/2026 | 78 °F / 51 °F | 55 °F / 47 °F | 64 % | 13 mph | - | 29.94 in | 0 in | ||
| 8/30/2026 | 79 °F / 60 °F | 65 °F / 55 °F | 65 % | 10 mph | - | 29.84 in | 0 in | ||
| 8/31/2026 | 79 °F / 54 °F | 61 °F / 51 °F | 75 % | 7 mph | - | 29.88 in | 0 in |